BEIDOU-3 M14

Last updated on Tue Oct 14 2025 00:02:34 GMT+0000 (Coordinated Universal Time)

1 43623U 18072B 25285.86493596 -.00000001 00000+0 00000+0 0 9998 2 43623 56.4087 70.8286 0002808 12.5114 347.4924 1.86230954 48040
UTC large
Height (km)
Speed (km/s)
/
Latitude / Longitude
Inclination (degrees)
Orbital Period (minutes)
Azimuth
Elevation
Range (km)
Doppler Factor

Next 0 passes for location: London (51.5072 / 0.1276)

Sorry there are no passes over London.